Location: Caltech
(34.1382°N, 118.1253°W)
Time: 05:59:40
(UTC-08:00)

Cosmos 2360 Rocket - Visible Passes

Search period start: 30 January 2015 00:00
Search period end: 09 February 2015 00:00
Orbit: 836 x 844 km, 71.0° (Epoch: 29 January)

Date Brightness Start Highest point End Pass type
(mag) Time Alt. Az. Time Alt. Az. Time Alt. Az.
31 Jan 2.6 06:15:49 10° NNW 06:21:25 69° ENE 06:27:01 10° SSE visible
31 Jan 4.3 19:19:42 10° SSE 19:20:02 11° SSE 19:20:02 11° SSE visible
01 Feb 2.7 06:00:13 10° NNW 06:05:48 64° ENE 06:11:23 10° SSE visible
01 Feb 3.8 19:04:14 10° SSE 19:06:09 19° SE 19:06:09 19° SE visible
01 Feb 4.9 20:47:46 10° SW 20:48:01 11° SW 20:48:01 11° SW visible
02 Feb 2.8 05:44:38 10° NNW 05:50:11 60° ENE 05:55:45 10° SSE visible
02 Feb 3.3 18:48:47 10° SSE 18:52:21 25° ESE 18:52:21 25° ESE visible
02 Feb 4.3 20:32:03 10° SW 20:34:14 21° WSW 20:34:14 21° WSW visible
03 Feb 2.9 05:29:03 10° NNW 05:34:34 55° ENE 05:40:06 10° SE visible
03 Feb 3.1 18:33:21 10° SSE 18:37:44 24° ESE 18:38:37 24° E visible
03 Feb 3.6 20:16:21 10° SW 20:20:29 34° W 20:20:29 34° W visible
04 Feb 3.0 05:13:29 10° N 05:18:57 52° ENE 05:24:26 10° SE visible
04 Feb 3.3 18:17:57 10° SSE 18:22:08 23° ESE 18:24:53 16° ENE visible
04 Feb 3.3 20:00:39 10° SW 20:05:55 40° WNW 20:06:46 37° NW visible
05 Feb 3.1 04:57:54 10° N 05:03:20 48° ENE 05:08:46 10° SE visible
05 Feb 3.4 18:02:33 10° SSE 18:06:33 21° ESE 18:10:46 10° NE visible
05 Feb 3.2 19:44:57 10° SW 19:50:17 43° WNW 19:53:01 26° N visible
06 Feb 3.2 04:42:20 10° N 04:47:42 45° ENE 04:53:05 10° SE visible
06 Feb 3.5 17:47:10 10° SE 17:50:58 20° ESE 17:54:59 10° NE visible
06 Feb 3.1 19:29:16 10° SW 19:34:40 46° WNW 19:39:12 14° N visible
07 Feb 3.3 04:27:50 15° N 04:32:04 42° ENE 04:37:24 10° SE visible
07 Feb 3.4 06:11:34 10° NW 06:15:50 22° WSW 06:19:54 10° SSW visible
07 Feb 3.0 19:13:36 10° SW 19:19:02 49° WNW 19:24:29 10° N visible
08 Feb 3.4 04:13:43 24° NNE 04:16:27 39° ENE 04:21:43 10° SE visible
08 Feb 3.3 05:55:49 10° NW 06:00:15 23° WSW 06:04:30 10° SSW visible
08 Feb 2.9 18:57:56 10° SW 19:03:25 53° WNW 19:08:54 10° N visible
